Location: Unspecified
(48.5670°N, 0.0000°E)
Time: 19:43:10
(UTC+00:00)

Tiros 1 despin weight - All Passes

Search period start: 22 August 2019 00:00
Search period end: 01 September 2019 00:00
Orbit: 594 x 642 km, 48.2° (Epoch: 21 August)

Date Brightness Start Highest point End Pass type
(mag) Time Alt. Az. Time Alt. Az. Time Alt. Az.
22 Aug - 00:19:15 10° SW 00:23:31 45° SSE 00:27:50 10° E visible
22 Aug - 02:00:23 10° W 02:04:54 85° S 02:09:29 10° E visible
22 Aug - 03:41:56 10° W 03:46:27 71° SSW 03:51:03 10° ESE visible
22 Aug - 05:23:41 10° W 05:27:38 29° SSW 05:31:37 10° SSE daylight
22 Aug - 22:55:30 10° SSW 22:58:59 23° SE 23:02:31 10° E night (unlit)
23 Aug - 00:35:36 10° WSW 00:40:00 64° SSE 00:44:31 10° E visible
23 Aug - 02:17:01 10° W 02:21:32 87° S 02:26:08 10° E visible
23 Aug - 03:58:34 10° W 04:03:00 53° SSW 04:07:29 10° SE visible
23 Aug - 05:40:51 10° W 05:43:55 18° SW 05:47:02 10° S daylight
23 Aug - 23:11:16 10° SW 23:15:19 36° SSE 23:19:27 10° E night (unlit)
24 Aug - 00:52:07 10° WSW 00:56:35 79° S 01:01:09 10° E visible
24 Aug - 02:33:38 10° W 02:38:10 79° S 02:42:45 10° ESE visible
24 Aug - 04:15:17 10° W 04:19:27 36° SSW 04:23:41 10° SE visible
24 Aug - 21:48:02 10° S 21:50:55 17° SE 21:53:47 10° E night (unlit)
24 Aug - 23:27:27 10° SW 23:31:46 53° SSE 23:36:10 10° E night (unlit)
25 Aug - 01:08:44 10° W 01:13:13 87° S 01:17:47 10° E visible
25 Aug - 02:50:16 10° W 02:54:45 64° SSW 02:59:17 10° ESE visible
25 Aug - 04:32:11 10° W 04:35:49 24° SW 04:39:29 10° SSE visible
25 Aug - 22:03:25 10° SSW 22:07:10 28° SSE 22:10:59 10° E night (unlit)
25 Aug - 23:43:53 10° WSW 23:48:19 71° SSE 23:52:49 10° E night (unlit)
26 Aug - 01:25:21 10° W 01:29:51 85° S 01:34:26 10° E visible
26 Aug - 03:06:56 10° W 03:11:15 46° SSW 03:15:38 10° SE visible
26 Aug - 04:49:41 10° WSW 04:52:04 14° SW 04:54:27 10° S daylight
26 Aug - 20:41:07 10° SSE 20:42:52 12° SE 20:44:37 10° ESE night (unlit)
26 Aug - 22:19:23 10° SW 22:23:34 42° SSE 22:27:48 10° E night (unlit)
27 Aug - 00:00:27 10° W 00:04:55 84° S 00:09:27 10° E night (unlit)
27 Aug - 01:41:59 10° W 01:46:28 73° SSW 01:51:01 10° ESE visible
27 Aug - 03:23:42 10° W 03:27:40 30° SSW 03:31:41 10° SSE visible
27 Aug - 20:55:45 10° SSW 20:59:04 21° SE 21:02:25 10° E visible
27 Aug - 22:35:41 10° WSW 22:40:03 61° SSE 22:44:29 10° E night (unlit)
28 Aug - 00:17:05 10° W 00:21:33 87° S 00:26:05 10° E night (unlit)
28 Aug - 01:58:37 10° W 02:03:01 56° SSW 02:07:29 10° ESE visible
28 Aug - 03:40:47 10° W 03:43:59 19° SW 03:47:12 10° S visible
28 Aug - 21:11:25 10° SSW 21:15:24 33° SSE 21:19:24 10° E visible
28 Aug - 22:52:12 10° WSW 22:56:37 77° S 23:01:07 10° E night (unlit)
29 Aug - 00:33:42 10° W 00:38:11 81° S 00:42:42 10° ESE night (unlit)
29 Aug - 02:15:19 10° W 02:19:30 38° SSW 02:23:43 10° SE visible
29 Aug - 03:59:09 10° WSW 04:00:10 11° SW 04:01:11 10° SSW visible
29 Aug - 19:48:23 10° S 19:51:00 16° SE 19:53:37 10° ESE visible
29 Aug - 21:27:33 10° SW 21:31:50 50° SSE 21:36:09 10° E visible
29 Aug - 23:08:47 10° W 23:13:15 86° S 23:17:45 10° E night (unlit)
30 Aug - 00:50:20 10° W 00:54:46 66° SSW 00:59:16 10° ESE night (unlit)
30 Aug - 02:32:11 10° W 02:35:52 25° SW 02:39:35 10° SSE night (unlit)
30 Aug - 20:03:36 10° SSW 20:07:15 26° SE 20:10:55 10° E visible
30 Aug - 21:43:57 10° WSW 21:48:21 68° SSE 21:52:48 10° E visible
30 Aug - 23:25:25 10° W 23:29:52 86° S 23:34:24 10° E night (unlit)
31 Aug - 01:06:59 10° W 01:11:17 48° SSW 01:15:39 10° SE night (unlit)
31 Aug - 02:49:33 10° WSW 02:52:08 15° SW 02:54:42 10° S night (unlit)
31 Aug - 18:41:47 10° SSE 18:42:57 11° SE 18:44:09 10° ESE daylight
31 Aug - 20:19:30 10° SW 20:23:38 40° SSE 20:27:47 10° E visible
31 Aug - 22:00:31 10° W 22:04:56 82° S 22:09:26 10° E visible
31 Aug - 23:42:03 10° W 23:46:29 75° SSW 23:51:00 10° ESE night (unlit)
